Flag for U.S.A. Weather past 2 weeks in Youngstown, Ohio, U.S.A.

31 °F

Passing clouds.

Feels Like: 23 °F
Forecast: 27 / 54 °F
Wind: 9 mph from Southeast

Location: Youngstown-Warren Regional Airport

Current Time: Nov 25, 2015 at 7:19:23 AM

Latest Report: Nov 25, 2015 at 6:51 AM

Visibility: 10 mi

Pressure: 30.53 "Hg

Humidity: 73%

Dew point: 23 °F

Location of YoungstownLocation

Historic Weather in Youngstown — Graph


Youngstown temperature yesterday

Maximum temperature yesterday: 45 °F (at 1:51 PM)
Minimum temperature yesterday: 30 °F (at 7:51 AM)
Average temperature yesterday: 35 °F

Past Weeks' High & Low Weather Summary

High64 °F (Nov 18, 2:51 PM)97% (Nov 10, 11:51 AM)30.51 "Hg (Nov 10, 11:51 AM)
Low24 °F (Nov 23, 1:51 AM)16% (Nov 20, 12:51 PM)29.48 "Hg (Nov 12, 11:51 AM)
Average44 °F63%30.10 "Hg
* Reported Nov 10 5:51 AM — Nov 25 5:51 AM, Youngstown, Weather by CustomWeather, © 2015

Note: Actual official high and low records may vary slightly from our data, if they occured in-between our weather recording intervals... More about our weather records


Youngstown weather history for previous 24 hours

Time TempWeatherWind HumidityBarometerVisibility
5:51 AM
Wed, Nov 25
32 °FPassing clouds.10 mph73%30.51 "Hg10 mi
4:51 AM31 °FPassing clouds.9 mph73%30.50 "Hg10 mi
3:51 AM30 °FPartly cloudy.8 mph72%30.50 "Hg10 mi
2:51 AM31 °FPassing clouds.9 mph73%30.49 "Hg10 mi
1:51 AM32 °FMostly cloudy.8 mph73%30.47 "Hg10 mi
12:51 AM30 °FPartly cloudy.7 mph75%30.48 "Hg10 mi
11:51 PM
Tue, Nov 24
31 °FPassing clouds.7 mph73%30.47 "Hg10 mi
10:51 PM31 °FPassing clouds.8 mph73%30.46 "Hg10 mi
9:51 PM32 °FPassing clouds.7 mph69%30.46 "Hg10 mi
8:51 PM32 °FPassing clouds.7 mph73%30.46 "Hg10 mi
7:51 PM34 °FPassing clouds.7 mph70%30.45 "Hg10 mi
6:51 PM35 °FPassing clouds.5 mph64%30.44 "Hg10 mi
5:51 PM36 °FPassing clouds.3 mph64%30.42 "Hg10 mi
4:51 PM40 °FScattered clouds.7 mph58%30.41 "Hg10 mi
3:51 PM43 °FPartly sunny.5 mph45%30.39 "Hg10 mi
2:51 PM44 °FPartly sunny.5 mph47%30.37 "Hg10 mi
1:51 PM45 °FPartly sunny.9 mph45%30.37 "Hg10 mi
12:51 PM43 °FPartly sunny.9 mph51%30.37 "Hg10 mi
11:51 AM43 °FPartly sunny.7 mph51%30.37 "Hg10 mi
10:51 AM40 °FScattered clouds.No wind68%30.37 "Hg10 mi
9:51 AM38 °FScattered clouds.6 mph70%30.36 "Hg10 mi
8:51 AM34 °FPassing clouds.6 mph79%30.34 "Hg10 mi
7:51 AM30 °FPassing clouds.3 mph82%30.32 "Hg10 mi
Weather by CustomWeather, © 2015

See weather overviewHow to use our weather pages